STARLINK-31240, 59041

Orbit data source: Space-Track

STARLINK-31240, 59041 is a payload satellite owned by SpaceX/Seattle (US) in LEO that was launched on Sun, 25 Feb 2024 UTC via an FALCON 9 launch vehicle from the Air Force Eastern Test Range (AFETR). Payload-class satellites include a variety of spacecraft equipped with specific instruments for various scientific and technological missions. These include communications satellites like Starlink; space stations such as the ISS; scientific satellites like the Hubble; Earth observation satellites from companies like Planet Labs, Umbra, and HawkEye 360; GPS; miniature CubeSats for education and research; and military/defense satellites.

Loading next visibility...
Identifier
59041, 2024-038U
Orbit
LEO
Country
Flag of USUS
Related business
Manufacturer
SpaceX/Seattle
Mission
Operational Commercial Communications
Bus & Motor
STARLINK V2M, Unknown motor
Mass
730 kg wet, ~700 kg dry
Launch date (UTC)
2024-02-25 (2 years ago)
Launch vehicle
FALCON 9
Launch site
Air Force Eastern Test Range (AFETR)
Object type
Payload
Rocket body
Debris
Shape & HBR
Box + 2 Pan, 17.7 m
Radar Cross Section
33.884 m², Large (>1 m²)

Expand to show TLE details & history
Last TLE update: 21 hours ago

TLE from 21 hours ago
0 STARLINK-31240
1 59041U 24038U   25348.74284094  .00000228  00000-0  17823-4 0  9993
2 59041  42.9978 143.5648 0001301 288.7800  71.2910 15.27561826101802
Epoch: 2025-12-14T17:49Z
TLE epoch observation values (Epoch: 2025-12-14T17:49:41.457Z)
Latitude
-0.00003°
Longitude
152.49064°
Altitude
482.593 km
Speed
7.626 km/s
True Right ascension
09h 34m 15s
True Declination
0° 00' 00"
Sunlit
Object was in full shadow at epoch
Visualization orbit readout
Latitude
Unknown
Longitude
Unknown
Altitude
Unknown
Speed
Unknown
Apparent Right ascension
Unknown
Apparent Declination
Unknown
Sunlit
N/A
Visualization observer readout
Local Sidereal Time
13:20:31
Azimuth
Unknown
Elevation
Unknown
Doppler factor
Unknown
Orbital elements
Apogee altitude
485.942 km
Perigee altitude
484.156 km
Semi-major axis
6,863.186 km
Eccentricity
0.00013
Inclination
42.9978°
RAAN
143.5648°
Arg. of periapsis
288.78°
True anomaly
71.30512°
Mean anomaly
71.291°
Eccentric anomaly
71.29806°
Mean motion
3.81728 °/min
Orbital period
94.31 mins
BSTAR
0.000017823
Loading maneuver chart data...
Computing Atmospheric mass density...
Loading historical data...
Loading historical data...
Loading historical data...
Loading historical data...
Loading historical data...
Loading historical data...
Loading historical data...

Documentation

Showing up to 5 results
|